EW6539 Weather Reports


time (UTC)temp
F
wind
direction
speed
knots
gust
knots
rain 1hr
in
rain 24hr
in
rain mn
in
humidity
%
barometer
mb
20260506202035 65 250 1.7 12.2 0.00 0.00 0.00 79 1008.5
20260506201604 65 238 2.6 11.3 0.00 0.00 0.00 79 1008.5
20260506201039 65 271 3.5 9.6 0.00 0.00 0.00 80 1008.6
20260506200536 65 232 2.6 13.0 0.00 0.00 0.00 80 1008.6
20260506200040 64 244 3.5 13.0 0.00 0.00 0.00 80 1008.6
20260506195536 64 199 1.7 7.8 0.00 0.00 0.00 82 1008.8
20260506195039 64 231 1.7 7.0 0.00 0.00 0.00 83 1008.7
20260506194549 64 261 0.9 5.2 0.00 0.00 0.00 84 1008.8
20260506194036 63 298 0.9 3.5 0.00 0.00 0.00 85 1008.9
20260506193535 63 264 0.0 3.5 0.00 0.00 0.00 86 1008.9
20260506193051 63 269 0.9 6.1 0.00 0.00 0.00 85 1009.0
20260506192536 63 0 0.0 6.1 0.00 0.00 0.00 85 1009.0
20260506192038 63 261 0.9 7.0 0.00 0.00 0.00 85 1009.1
20260506191542 63 209 0.9 7.8 0.00 0.00 0.00 85 1009.1
20260506191037 63 150 2.6 13.9 0.00 0.00 0.00 83 1009.1
20260506190535 64 219 2.6 13.9 0.00 0.00 0.00 81 1009.2
20260506190045 65 215 5.2 13.9 0.00 0.00 0.00 77 1009.1
20260506185536 66 269 3.5 12.2 0.00 0.00 0.00 74 1009.1
20260506185036 66 221 1.7 12.2 0.00 0.00 0.00 73 1009.1
20260506184549 66 251 3.5 12.2 0.00 0.00 0.00 73 1009.1
20260506184036 66 240 3.5 12.2 0.00 0.00 0.00 73 1009.1
20260506183539 66 189 4.3 18.2 0.00 0.00 0.00 73 1009.0
20260506183047 66 237 5.2 18.2 0.00 0.00 0.00 72 1009.1
20260506182535 66 211 6.1 18.2 0.00 0.00 0.00 72 1009.1
20260506182035 67 252 7.0 14.8 0.00 0.00 0.00 71 1009.2
20260506181545 68 159 2.6 13.0 0.00 0.00 0.00 70 1009.1
20260506181036 68 163 3.5 14.8 0.00 0.00 0.00 69 1009.3
20260506180537 68 256 2.6 15.6 0.00 0.00 0.00 69 1009.2
20260506180048 68 269 6.1 15.6 0.00 0.00 0.00 67 1009.2
20260506175536 69 19 2.6 16.5 0.00 0.00 0.00 67 1009.3
20260506175036 69 221 4.3 18.2 0.00 0.00 0.00 66 1009.3
20260506174541 69 265 9.6 18.2 0.00 0.00 0.00 64 1009.4
20260506174036 70 276 5.2 13.0 0.00 0.00 0.00 64 1009.5
20260506173538 70 291 5.2 16.5 0.00 0.00 0.00 65 1009.5
20260506173059 70 227 2.6 16.5 0.00 0.00 0.00 65 1009.3
20260506172537 71 238 4.3 12.2 0.00 0.00 0.00 64 1009.3
20260506172036 71 203 5.2 17.4 0.00 0.00 0.00 64 1009.3
20260506171551 70 128 5.2 17.4 0.00 0.00 0.00 64 1009.4
20260506171036 70 204 3.5 9.6 0.00 0.00 0.00 65 1009.7
20260506170537 69 232 0.9 7.8 0.00 0.00 0.00 69 1009.5
20260506170041 68 80 1.7 7.8 0.00 0.00 0.00 70 1009.6
20260506165540 68 170 1.7 10.4 0.00 0.00 0.00 70 1009.9
20260506165037 67 290 2.6 11.3 0.00 0.00 0.00 69 1009.9
20260506164539 68 243 1.7 13.9 0.00 0.00 0.00 69 1010.1
20260506164038 68 225 3.5 13.9 0.00 0.00 0.00 68 1010.3
20260506163535 67 240 2.6 13.9 0.00 0.00 0.00 68 1010.5
20260506163100 67 103 3.5 9.6 0.00 0.00 0.00 69 1010.8
20260506162535 67 196 4.3 8.7 0.00 0.00 0.00 69 1010.8
20260506162039 67 153 1.7 9.6 0.00 0.00 0.00 69 1010.9
20260506161546 68 209 3.5 10.4 0.00 0.00 0.00 68 1011.0
20260506161037 68 249 3.5 10.4 0.00 0.00 0.00 66 1011.0
20260506160535 68 275 1.7 12.2 0.00 0.00 0.00 66 1011.0
20260506160046 68 206 4.3 12.2 0.00 0.00 0.00 65 1011.0
20260506155536 69 244 2.6 16.5 0.00 0.00 0.00 64 1011.1
20260506155036 70 241 6.1 16.5 0.00 0.00 0.00 62 1011.1
20260506154547 70 265 2.6 10.4 0.00 0.00 0.00 60 1011.0
20260506154036 71 213 1.7 13.0 0.00 0.00 0.00 59 1011.1
20260506153536 71 201 2.6 13.0 0.00 0.00 0.00 59 1011.0
20260506153048 71 261 2.6 13.0 0.00 0.00 0.00 60 1011.0
20260506152536 70 219 4.3 12.2 0.00 0.00 0.00 60 1010.9
20260506152037 70 236 2.6 12.2 0.00 0.00 0.00 60 1011.1
20260506151549 70 217 4.3 11.3 0.00 0.00 0.00 60 1011.1
20260506151035 70 256 3.5 12.2 0.00 0.00 0.00 60 1011.0
20260506150535 70 244 4.3 12.2 0.00 0.00 0.00 60 1011.0
20260506150047 70 249 4.3 17.4 0.00 0.00 0.00 60 1011.0
20260506145539 70 238 5.2 17.4 0.00 0.00 0.00 59 1011.0
20260506145039 70 248 4.3 15.6 0.00 0.00 0.00 59 1011.0
20260506144545 70 118 5.2 18.2 0.00 0.00 0.00 59 1011.1
20260506144036 71 288 5.2 18.2 0.00 0.00 0.00 59 1011.1
20260506143537 71 235 4.3 12.2 0.00 0.00 0.00 59 1011.1
20260506143044 71 150 6.1 13.0 0.00 0.00 0.00 58 1010.9
20260506142534 71 251 2.6 13.9 0.00 0.00 0.00 59 1011.0
20260506142039 71 171 3.5 13.9 0.00 0.00 0.00 59 1011.0
20260506141538 71 291 3.5 13.9 0.00 0.00 0.00 59 1011.0
20260506141037 71 107 5.2 13.0 0.00 0.00 0.00 59 1011.0
20260506140537 71 182 2.6 8.7 0.00 0.00 0.00 60 1010.8
20260506140059 71 200 1.7 10.4 0.00 0.00 0.00 59 1010.8
20260506135536 71 0 4.3 10.4 0.00 0.00 0.00 60 1010.7
20260506135036 71 234 1.7 9.6 0.00 0.00 0.00 60 1010.8
20260506134545 71 294 4.3 13.0 0.00 0.00 0.00 60 1011.0
20260506134037 71 240 5.2 13.0 0.00 0.00 0.00 60 1011.0
20260506133538 71 204 2.6 13.0 0.00 0.00 0.00 60 1011.1
20260506133043 71 140 3.5 11.3 0.00 0.00 0.00 60 1011.0
20260506132536 71 69 4.3 13.0 0.00 0.00 0.00 60 1011.4
20260506132037 70 234 1.7 13.0 0.00 0.00 0.00 63 1011.3
20260506131545 70 136 3.5 10.4 0.00 0.00 0.00 64 1011.2
20260506131039 69 252 1.7 11.3 0.00 0.00 0.00 66 1011.4
20260506130538 69 195 2.6 11.3 0.00 0.00 0.00 66 1011.4
20260506130043 68 207 1.7 11.3 0.00 0.00 0.00 66 1011.4
20260506125537 68 225 3.5 11.3 0.00 0.00 0.00 67 1011.4
20260506125037 67 276 1.7 10.4 0.00 0.00 0.00 69 1011.3
20260506124541 67 153 3.5 10.4 0.00 0.00 0.00 70 1011.4
20260506124036 66 234 2.6 10.4 0.00 0.00 0.00 72 1011.4
20260506123537 65 245 4.3 10.4 0.00 0.00 0.00 73 1011.4
20260506123046 65 292 1.7 8.7 0.00 0.00 0.00 74 1011.4
20260506122537 64 219 1.7 5.2 0.00 0.00 0.00 75 1011.5
20260506122036 64 216 0.0 10.4 0.00 0.00 0.00 75 1011.5
20260506121547 64 177 0.0 10.4 0.00 0.00 0.00 76 1011.5
20260506121036 64 254 2.6 7.8 0.00 0.00 0.00 76 1011.6
20260506120537 63 231 2.6 9.6 0.00 0.00 0.00 76 1011.5
20260506120106 63 267 3.5 9.6 0.00 0.00 0.00 77 1011.5
20260506115536 63 246 1.7 10.4 0.00 0.00 0.00 77 1011.6
20260506115036 63 155 1.7 10.4 0.00 0.00 0.00 77 1011.7
20260506114558 63 132 4.3 10.4 0.00 0.00 0.00 78 1011.7
20260506114039 62 243 1.7 7.8 0.00 0.00 0.00 78 1011.6
20260506113537 62 231 1.7 8.7 0.00 0.00 0.00 79 1011.7
20260506113045 62 248 1.7 8.7 0.00 0.00 0.00 80 1011.9
20260506112537 61 156 1.7 11.3 0.00 0.00 0.00 81 1011.8
20260506112037 61 0 2.6 11.3 0.00 0.00 0.00 81 1011.8
20260506111546 61 350 0.9 13.9 0.00 0.00 0.00 82 1011.8
20260506111038 61 0 2.6 13.9 0.00 0.00 0.00 82 1011.9
20260506110537 60 312 0.9 10.4 0.00 0.00 0.00 82 1011.8
20260506110045 60 0 0.9 8.7 0.00 0.00 0.00 83 1011.7
20260506105539 60 80 0.0 3.5 0.00 0.00 0.00 83 1011.7
20260506105037 60 194 0.9 7.8 0.00 0.00 0.00 84 1011.8
20260506104547 60 80 0.9 7.8 0.00 0.00 0.00 84 1011.7
20260506104037 60 202 0.9 7.0 0.00 0.00 0.00 84 1011.7
20260506103537 60 248 1.7 7.0 0.00 0.00 0.00 84 1011.8
20260506103044 59 281 1.7 7.0 0.00 0.00 0.00 84 1011.7
20260506102537 59 248 0.9 7.0 0.00 0.00 0.00 84 1011.8
20260506102036 59 0 0.9 7.8 0.00 0.00 0.00 84 1011.7
20260506101539 59 140 0.9 7.8 0.00 0.00 0.00 84 1011.5
20260506101037 59 0 0.9 7.0 0.00 0.00 0.00 84 1011.6
20260506100537 59 0 0.9 7.0 0.00 0.00 0.00 84 1011.5
20260506100049 60 234 0.0 6.1 0.00 0.00 0.00 84 1011.5
20260506095538 60 147 0.9 6.1 0.00 0.00 0.00 84 1011.5
20260506095037 60 265 0.0 4.3 0.00 0.00 0.00 84 1011.5
20260506094548 60 135 0.9 4.3 0.00 0.00 0.00 83 1011.5
20260506094041 60 246 0.0 4.3 0.00 0.00 0.00 83 1011.5
20260506093537 60 139 0.0 5.2 0.00 0.00 0.00 83 1011.4
20260506093105 60 153 0.0 5.2 0.00 0.00 0.00 83 1011.4
20260506092537 60 266 0.9 6.1 0.00 0.00 0.00 83 1011.5
20260506092037 60 265 0.9 6.1 0.00 0.00 0.00 83 1011.6
20260506091547 60 211 0.9 7.8 0.00 0.00 0.00 83 1011.5
20260506091037 60 0 0.9 7.8 0.00 0.00 0.00 83 1011.5
20260506090537 60 250 0.9 5.2 0.00 0.00 0.00 83 1011.6
20260506090049 61 96 0.9 7.0 0.00 0.00 0.00 82 1011.5
20260506085537 61 128 0.9 7.0 0.00 0.00 0.00 82 1011.6
20260506085037 61 114 0.9 7.8 0.00 0.00 0.00 82 1011.7
20260506084539 61 254 1.7 7.8 0.00 0.00 0.00 82 1011.6
20260506084040 61 0 0.9 6.1 0.00 0.00 0.00 82 1011.8
20260506083537 61 103 1.7 6.1 0.00 0.00 0.00 82 1011.8
20260506083042 61 234 0.0 3.5 0.00 0.00 0.00 81 1011.7
20260506082537 61 88 0.9 5.2 0.00 0.00 0.00 81 1011.7
20260506082036 61 243 1.7 5.2 0.00 0.00 0.00 81 1011.8
20260506081545 61 245 0.0 5.2 0.00 0.00 0.00 81 1011.8
20260506081037 61 260 0.0 8.7 0.00 0.00 0.00 81 1011.8
20260506080537 61 0 1.7 8.7 0.00 0.00 0.00 81 1011.7
20260506073046 62 233 1.7 8.7 0.00 0.00 0.00 81 1011.6
20260506072537 61 0 0.0 6.1 0.00 0.00 0.00 81 1011.8
20260506072037 61 262 0.9 6.1 0.00 0.00 0.00 81 1011.9
20260506071540 61 159 0.9 4.3 0.00 0.00 0.00 81 1012.0
20260506071036 61 73 0.0 7.0 0.00 0.00 0.00 81 1012.0
20260506070538 61 156 0.9 7.0 0.00 0.00 0.00 81 1012.0
20260506062035 62 0 0.9 6.1 0.00 0.00 0.00 79 1012.0
20260506061556 62 0 0.0 6.1 0.00 0.00 0.00 78 1012.1
20260506061038 62 217 0.0 6.1 0.00 0.00 0.00 78 1012.1
20260506060535 62 0 0.0 6.1 0.00 0.00 0.00 78 1012.1
20260506051034 64 209 0.9 6.1 0.00 0.00 0.00 74 1012.4
20260506050534 64 0 0.0 6.1 0.00 0.00 0.00 74 1012.4
20260506045034 64 0 2.6 9.6 0.00 0.00 0.00 73 1012.4
20260506044556 64 0 1.7 7.0 0.00 0.00 0.00 72 1012.4
20260506044035 64 0 0.0 6.1 0.00 0.00 0.00 72 1012.5
20260506043535 65 0 0.9 7.0 0.00 0.00 0.00 72 1012.4
20260506043050 65 134 2.6 7.0 0.00 0.00 0.00 72 1012.4
20260506042535 65 285 0.9 7.0 0.00 0.00 0.00 71 1012.4
20260506042035 65 262 1.7 7.0 0.00 0.00 0.00 71 1012.4
20260506041549 65 194 0.9 11.3 0.00 0.00 0.00 71 1012.4
20260506041034 65 204 3.5 11.3 0.00 0.00 0.00 71 1012.5
20260506040538 65 177 0.9 7.0 0.00 0.00 0.00 71 1012.4
20260506040040 65 200 2.6 9.6 0.00 0.00 0.00 70 1012.5
20260506035535 65 176 1.7 10.4 0.00 0.00 0.00 70 1012.5
20260506035035 65 166 0.9 11.3 0.00 0.00 0.00 70 1012.4
20260506034546 65 0 2.6 11.3 0.00 0.00 0.00 70 1012.4
20260506034034 65 210 2.6 9.6 0.00 0.00 0.00 70 1012.6
20260506033536 65 166 1.7 9.6 0.00 0.00 0.00 70 1012.5
20260506033050 65 241 1.7 7.8 0.00 0.00 0.00 69 1012.5
20260506032535 65 217 2.6 11.3 0.00 0.00 0.00 69 1012.5
20260506032036 65 332 0.9 11.3 0.00 0.00 0.00 69 1012.3
20260506031547 65 254 2.6 9.6 0.00 0.00 0.00 69 1012.4
20260506031037 66 243 3.5 9.6 0.00 0.00 0.00 69 1012.3
20260506030538 66 229 1.7 8.7 0.00 0.00 0.00 68 1012.5
20260506030041 66 0 1.7 10.4 0.00 0.00 0.00 68 1012.4
20260506025537 66 190 3.5 10.4 0.00 0.00 0.00 68 1012.4
20260506025037 66 159 2.6 10.4 0.00 0.00 0.00 67 1012.4
20260506024540 66 277 0.9 7.0 0.00 0.00 0.00 67 1012.5
20260506024037 66 118 2.6 8.7 0.00 0.00 0.00 66 1012.5
20260506023537 66 306 0.9 8.7 0.00 0.00 0.00 65 1012.5
20260506023050 66 214 1.7 13.0 0.00 0.00 0.00 65 1012.6
20260506022536 67 209 2.6 13.0 0.00 0.00 0.00 64 1012.6
20260506022036 67 219 0.9 7.8 0.00 0.00 0.00 64 1012.5
20260506021547 67 235 1.7 7.8 0.00 0.00 0.00 63 1012.5
20260506021039 67 240 2.6 10.4 0.00 0.00 0.00 62 1012.6
20260506020536 67 304 2.6 10.4 0.00 0.00 0.00 62 1012.5
20260506020114 67 227 1.7 9.6 0.00 0.00 0.00 61 1012.5
20260506015540 68 242 2.6 9.6 0.00 0.00 0.00 61 1012.5
20260506015036 68 329 2.6 9.6 0.00 0.00 0.00 60 1012.5
20260506014547 68 167 2.6 11.3 0.00 0.00 0.00 60 1012.4
20260506014037 68 269 2.6 11.3 0.00 0.00 0.00 60 1012.3
20260506013537 68 121 2.6 9.6 0.00 0.00 0.00 60 1012.3
20260506013044 68 202 0.9 7.0 0.00 0.00 0.00 60 1012.3
20260506012537 68 117 1.7 7.8 0.00 0.00 0.00 59 1012.3
20260506012036 68 251 2.6 8.7 0.00 0.00 0.00 59 1012.2
20260506011549 68 190 0.9 8.7 0.00 0.00 0.00 59 1012.2
20260506011037 68 198 1.7 8.7 0.00 0.00 0.00 58 1012.2
20260506010539 69 249 2.6 8.7 0.00 0.00 0.00 58 1012.2
20260506010040 69 117 2.6 8.7 0.00 0.00 0.00 58 1012.2
20260506005537 69 207 0.9 10.4 0.00 0.00 0.00 58 1012.1
20260506005036 69 107 2.6 10.4 0.00 0.00 0.00 57 1012.0
20260506004546 69 166 4.3 10.4 0.00 0.00 0.00 57 1012.0
20260506004036 69 232 2.6 7.0 0.00 0.00 0.00 57 1011.9
20260506003536 70 244 1.7 7.0 0.00 0.00 0.00 56 1011.9
20260506003047 70 180 0.9 6.1 0.00 0.00 0.00 56 1012.0
20260506002537 70 249 0.9 6.1 0.00 0.00 0.00 56 1011.8
20260506002036 71 47 0.9 7.8 0.00 0.00 0.00 54 1011.8
20260506001549 71 163 0.0 7.8 0.00 0.00 0.00 54 1011.8
20260506001036 72 202 1.7 7.8 0.00 0.00 0.00 53 1011.7
20260506000536 72 226 1.7 7.0 0.00 0.00 0.00 52 1011.6
20260506000059 73 0 0.9 7.0 0.00 0.00 0.00 50 1011.6
20260505235538 74 220 1.7 10.4 0.00 0.00 0.00 49 1011.5
20260505235039 74 109 1.7 10.4 0.00 0.00 0.00 47 1011.4
20260505234543 75 200 1.7 13.0 0.00 0.00 0.00 45 1011.3
20260505234037 75 202 2.6 13.0 0.00 0.00 0.00 44 1011.3
20260505233536 76 253 2.6 11.3 0.00 0.00 0.00 42 1011.3
20260505233042 76 250 4.3 13.9 0.00 0.00 0.00 40 1011.2
20260505232539 77 293 2.6 15.6 0.00 0.00 0.00 39 1011.2
20260505232037 77 198 5.2 15.6 0.00 0.00 0.00 39 1011.0
20260505231541 77 139 3.5 11.3 0.00 0.00 0.00 38 1010.9
20260505231036 78 263 2.6 13.9 0.00 0.00 0.00 38 1010.9
20260505230536 78 124 3.5 13.9 0.00 0.00 0.00 37 1010.7
20260505230049 78 147 4.3 16.5 0.00 0.00 0.00 37 1010.8
20260505225536 79 230 1.7 16.5 0.00 0.00 0.00 37 1010.7
20260505225037 79 343 2.6 12.2 0.00 0.00 0.00 37 1010.6
20260505224550 79 263 3.5 12.2 0.00 0.00 0.00 36 1010.7
20260505224036 79 122 2.6 12.2 0.00 0.00 0.00 35 1010.4
20260505223536 79 78 3.5 15.6 0.00 0.00 0.00 35 1010.4
20260505223043 80 260 4.3 15.6 0.00 0.00 0.00 34 1010.4
20260505222538 80 159 3.5 14.8 0.00 0.00 0.00 34 1010.2
20260505222042 81 142 7.0 14.8 0.00 0.00 0.00 33 1010.1
20260505221555 81 225 5.2 13.0 0.00 0.00 0.00 34 1010.2
20260505221035 81 112 3.5 13.9 0.00 0.00 0.00 33 1010.3
20260505220536 81 139 0.9 20.9 0.00 0.00 0.00 34 1010.0
20260505220103 81 253 3.5 20.9 0.00 0.00 0.00 33 1010.0
20260505215538 81 247 4.3 13.9 0.00 0.00 0.00 33 1009.9
20260505215036 81 252 3.5 16.5 0.00 0.00 0.00 33 1010.0
20260505214551 82 261 7.0 16.5 0.00 0.00 0.00 32 1010.0
20260505214036 82 238 6.1 14.8 0.00 0.00 0.00 32 1009.9
20260505213536 82 64 6.1 15.6 0.00 0.00 0.00 32 1009.9
20260505213043 82 150 7.0 15.6 0.00 0.00 0.00 33 1009.8
20260505212536 82 138 4.3 11.3 0.00 0.00 0.00 32 1009.7
20260505212037 82 223 3.5 20.9 0.00 0.00 0.00 33 1009.6
20260505211607 82 284 5.2 20.9 0.00 0.00 0.00 31 1009.6
20260505211036 82 263 8.7 20.9 0.00 0.00 0.00 31 1009.5
20260505210536 83 243 3.5 16.5 0.00 0.00 0.00 31 1009.4
20260505210047 83 239 6.1 13.9 0.00 0.00 0.00 32 1009.4
20260505205537 83 253 7.0 13.9 0.00 0.00 0.00 32 1009.4
20260505205037 83 261 6.1 13.0 0.00 0.00 0.00 31 1009.4
20260505204557 83 234 3.5 13.9 0.00 0.00 0.00 32 1009.4
20260505204036 83 22 6.1 15.6 0.00 0.00 0.00 32 1009.5
20260505203537 83 217 3.5 19.1 0.00 0.00 0.00 33 1009.4
20260505203046 83 194 5.2 19.1 0.00 0.00 0.00 33 1009.4
20260505202536 83 73 7.0 16.5 0.00 0.00 0.00 31 1009.5